Find Starlink 32398

NORAD ID: 61624 Int'l Des: 2024-191 Owner: SPXS Country: US Constellation: starlink operational
LEOCIRCULAR

リアルタイム位置

3D地球を読み込み中...

Starlink 32398について

説明を読み込み中...

次回通過

Passes for default location (London). Set your location on the main map for personalized predictions.

高度履歴

Loading altitude history...

軌道要素

1 61624U 24191D 26124.51372044 .00005812 00000-0 22047-3 0 9991
2 61624 42.9996 199.2667 0002573 293.6280 66.4301 15.27594082 86071
Epoch: May 4, 2026 • Age: 14 hours

現在のステータス

高度 484.4 km
速度 7.63 km/s
衛星直下点 31.04°N, 27.16°W
打ち上げ日 Oct 23, 2024
運用期間 1.5 years
タイプ internet

技術仕様

分類 Payload
質量 730.00 kg
乾燥質量 700.00 kg
総質量 730.00 kg
長さ 0.30 m
直径 4.10 m
スパン 29.00 m
形状 Box + pan
製造者 SPXS
バスタイプ Starlink V2M
フェーズステータス In Orbit
所有者/国 SPXS/US

Most Searched